Starlink 4767

operational
NORAD ID: 53850 Int'l Des: 2022-114 Owner: SPXS Country: US Constellation: starlink
LEOCIRCULAR

关于 Starlink 4767

正在加载描述...

实时位置

正在加载3D地球...

即将过境

高度历史

Altitude vs Time

uPlot chart will show altitude changes over time

两行轨道根数

1 53850U 22114AJ 26062.04326501 .00001264 00000-0 97472-4 0 9994
2 53850 53.2190 323.5744 0001479 85.0726 275.0435 15.08841812191971
Epoch: Mar 3, 2026 • Age: 28 hours

当前状态

高度 557.1 km
速度 7.58 km/s
星下点 -47.91°S, 21.42°W
发射日期 Sep 19, 2022
运行时间 3.4 years
类型 internet

技术详情

分类 Payload
质量 305.00 kg
干质量 290.00 kg
总质量 305.00 kg
长度 0.20 m
直径 2.80 m
跨度 9.00 m
形状 Box + pan
制造商 SPXS
平台类型 Starlink
阶段状态 In Orbit
所有者/国家 SPXS/US

大型星座

Loading constellations...